| time (UTC) | temp F | wind direction | speed MPH | gust MPH | rain 1hr in | rain 24hr in | rain mn in | humidity % | barometer mb |
| 20260505004555 | 56 | 178 | 1.0 | 3.0 | 0.00 | 0.00 | 0.00 | 65 | 1006.9 |
| 20260505003034 | 60 | 360 | 0.0 | 2.0 | 0.00 | 0.00 | 0.00 | 55 | 1006.5 |
| 20260505001545 | 64 | 0 | 0.0 | 0.0 | 0.00 | 0.00 | 0.00 | 41 | 1006.0 |
| 20260505000045 | 66 | 0 | 0.0 | 0.0 | 0.00 | 0.00 | 0.00 | 41 | 1005.8 |
| 20260504234541 | 67 | 0 | 0.0 | 1.0 | 0.00 | 0.00 | 0.00 | 37 | 1005.6 |
| 20260504233040 | 69 | 0 | 0.0 | 3.0 | 0.00 | 0.00 | 0.00 | 34 | 1005.4 |
| 20260504231540 | 70 | 306 | 0.0 | 5.0 | 0.00 | 0.00 | 0.00 | 32 | 1005.1 |
| 20260504230037 | 70 | 0 | 0.0 | 5.0 | 0.00 | 0.00 | 0.00 | 31 | 1005.0 |
| 20260504224545 | 71 | 0 | 2.0 | 8.0 | 0.00 | 0.00 | 0.00 | 31 | 1004.7 |
| 20260504223046 | 71 | 258 | 4.0 | 12.0 | 0.00 | 0.00 | 0.00 | 31 | 1004.7 |
| 20260504221556 | 71 | 0 | 1.0 | 5.0 | 0.00 | 0.00 | 0.00 | 32 | 1004.5 |
| 20260504220039 | 71 | 244 | 2.0 | 8.0 | 0.00 | 0.00 | 0.00 | 31 | 1004.6 |
| 20260504214537 | 71 | 263 | 0.0 | 4.0 | 0.00 | 0.00 | 0.00 | 32 | 1004.7 |
| 20260504213045 | 71 | 257 | 3.0 | 7.0 | 0.00 | 0.00 | 0.00 | 31 | 1004.7 |
| 20260504211540 | 72 | 248 | 2.0 | 8.0 | 0.00 | 0.00 | 0.00 | 30 | 1004.8 |
| 20260504210046 | 73 | 253 | 1.0 | 15.0 | 0.00 | 0.00 | 0.00 | 30 | 1004.6 |
| 20260504204537 | 72 | 210 | 3.0 | 11.0 | 0.00 | 0.00 | 0.00 | 30 | 1004.6 |
| 20260504203047 | 72 | 265 | 4.0 | 13.0 | 0.00 | 0.00 | 0.00 | 29 | 1004.7 |
| 20260504201545 | 72 | 327 | 6.0 | 19.0 | 0.00 | 0.00 | 0.00 | 29 | 1004.7 |
| 20260504200041 | 73 | 243 | 3.0 | 10.0 | 0.00 | 0.00 | 0.00 | 28 | 1004.7 |
| 20260504194549 | 73 | 292 | 2.0 | 9.0 | 0.00 | 0.00 | 0.00 | 31 | 1004.7 |
| 20260504193045 | 72 | 255 | 3.0 | 12.0 | 0.00 | 0.00 | 0.00 | 29 | 1004.7 |
| 20260504191601 | 70 | 261 | 4.0 | 11.0 | 0.00 | 0.00 | 0.00 | 31 | 1004.8 |
| 20260504190045 | 70 | 283 | 3.0 | 11.0 | 0.00 | 0.00 | 0.00 | 31 | 1004.8 |
| 20260504184555 | 69 | 223 | 4.0 | 14.0 | 0.00 | 0.00 | 0.00 | 31 | 1005.0 |
| 20260504183043 | 71 | 274 | 6.0 | 16.0 | 0.00 | 0.00 | 0.00 | 28 | 1004.9 |
| 20260504181541 | 71 | 253 | 4.0 | 13.0 | 0.00 | 0.00 | 0.00 | 29 | 1004.7 |
| 20260504180038 | 71 | 238 | 4.0 | 13.0 | 0.00 | 0.00 | 0.00 | 28 | 1004.7 |
| 20260504174535 | 71 | 252 | 4.0 | 10.0 | 0.00 | 0.00 | 0.00 | 30 | 1004.8 |
| 20260504173044 | 70 | 264 | 4.0 | 8.0 | 0.00 | 0.00 | 0.00 | 29 | 1004.8 |
| 20260504171545 | 69 | 246 | 4.0 | 10.0 | 0.00 | 0.00 | 0.00 | 31 | 1004.8 |
| 20260504081540 | 39 | 281 | 0.0 | 3.0 | 0.00 | 0.00 | 0.00 | 75 | 1008.5 |
| 20260504080121 | 37 | 0 | 0.0 | 1.0 | 0.00 | 0.00 | 0.00 | 86 | 1008.5 |
| 20260504044536 | 33 | 0 | 0.0 | 1.0 | 0.00 | 0.00 | 0.00 | 85 | 1008.5 |
| 20260504043037 | 34 | 0 | 0.0 | 1.0 | 0.00 | 0.00 | 0.00 | 83 | 1008.5 |
| 20260504041541 | 34 | 0 | 0.0 | 1.0 | 0.00 | 0.00 | 0.00 | 82 | 1008.4 |
| 20260504040041 | 35 | 0 | 0.0 | 0.0 | 0.00 | 0.00 | 0.00 | 81 | 1008.3 |
| 20260504034535 | 35 | 0 | 0.0 | 0.0 | 0.00 | 0.00 | 0.00 | 81 | 1008.1 |
| 20260504033044 | 35 | 0 | 0.0 | 0.0 | 0.00 | 0.00 | 0.00 | 79 | 1008.0 |
| 20260504031534 | 36 | 0 | 0.0 | 0.0 | 0.00 | 0.00 | 0.00 | 78 | 1008.0 |
| 20260504030106 | 37 | 0 | 0.0 | 1.0 | 0.00 | 0.00 | 0.00 | 78 | 1007.9 |
| 20260504024544 | 37 | 0 | 0.0 | 1.0 | 0.00 | 0.01 | 0.00 | 76 | 1007.9 |
| 20260504023039 | 38 | 0 | 0.0 | 0.0 | 0.00 | 0.01 | 0.00 | 74 | 1008.0 |
| 20260504021547 | 39 | 0 | 0.0 | 0.0 | 0.00 | 0.01 | 0.00 | 73 | 1007.8 |
| 20260504020034 | 40 | 0 | 0.0 | 0.0 | 0.00 | 0.01 | 0.00 | 71 | 1007.9 |
| 20260504014545 | 41 | 0 | 0.0 | 0.0 | 0.00 | 0.01 | 0.00 | 67 | 1007.9 |
| 20260504013041 | 43 | 0 | 0.0 | 0.0 | 0.00 | 0.01 | 0.00 | 62 | 1008.0 |
| 20260504011539 | 44 | 0 | 0.0 | 1.0 | 0.00 | 0.01 | 0.00 | 59 | 1007.8 |
| 20260504010035 | 46 | 0 | 0.0 | 4.0 | 0.00 | 0.01 | 0.00 | 56 | 1007.5 |